RASCOM-QAF 1 1 32387U 07063A 21062.61991682 -.00000044 00000-0 00000-0 0 9991 2 32387 7.6391 55.0929 0011012 9.9091 345.3079 0.99065988 48337 HORIZONS 2 1 32388U 07063B 21063.07549334 -.00000192 00000-0 00000+0 0 9999 2 32388 0.0115 253.1741 0003185 100.2898 280.5810 1.00271753 48519 ARIANE 5 R/B 1 32389U 07063C 21062.39278998 -.00000019 00000-0 -28966-3 0 9993 2 32389 5.2239 135.0737 7126289 305.1578 7.4334 2.30506052111195 ARIANE 5 DEB [SYLDA] 1 32390U 07063D 21062.65345583 .00000143 00000-0 25036-2 0 9999 2 32390 5.3681 185.0412 7159708 213.2832 188.8940 2.26249962108909